owner,sensor,date,latitude,longitude,vertical_datum,wind_speed,wind_to_direction,wind_speed_of_gust,qcFlag 
TCOON,ioos:station:TCOON:146:1,2013-12-09T15:30:00Z,28.1324,-97.0345,0.0,3.2,16.0,4.0,'1111122,1111122,1111122' 
TCOON,ioos:station:TCOON:146:1,2013-12-09T17:00:00Z,28.1324,-97.0345,0.0,2.7,346.0,3.9,'1111122,1111122,1111122' 
TCOON,ioos:station:TCOON:146:1,2013-12-09T17:30:00Z,28.1324,-97.0345,0.0,4.9,4.0,5.6,'1111122,1111122,1111122' 
TCOON,ioos:station:TCOON:146:1,2013-12-10T07:30:00Z,28.1324,-97.0345,0.0,10.3,344.0,12.3,'1111122,1111122,1111122' 
TCOON,ioos:station:TCOON:146:1,2013-12-10T11:00:00Z,28.1324,-97.0345,0.0,10.0,348.0,12.1,'1111122,1111122,1111122' 
TCOON,ioos:station:TCOON:146:1,2013-12-10T20:30:00Z,28.1324,-97.0345,0.0,3.8,324.0,5.2,'1111122,1111122,1111122' 
TCOON,ioos:station:TCOON:146:1,2013-12-11T18:00:00Z,28.1324,-97.0345,0.0,3.4,4.0,4.0,'1111122,1111122,1111122' 
TCOON,ioos:station:TCOON:146:1,2013-12-12T15:30:00Z,28.1324,-97.0345,0.0,6.6,19.0,7.9,'1111122,1111122,1111122' 
TCOON,ioos:station:TCOON:146:1,2013-12-12T17:30:00Z,28.1324,-97.0345,0.0,4.4,358.0,5.4,'1111122,1111122,1111122' 
TCOON,ioos:station:TCOON:146:1,2013-12-12T23:00:00Z,28.1324,-97.0345,0.0,5.1,26.0,6.1,'1111122,1111122,1111122' 
TCOON,ioos:station:TCOON:146:1,2013-12-13T06:30:00Z,28.1324,-97.0345,0.0,4.1,16.0,4.9,'1111122,1111122,1111122' 
TCOON,ioos:station:TCOON:146:1,2013-12-13T07:00:00Z,28.1324,-97.0345,0.0,4.6,14.0,5.3,'1111122,1111122,1111122' 
TCOON,ioos:station:TCOON:146:1,2013-12-13T07:30:00Z,28.1324,-97.0345,0.0,3.7,25.0,4.4,'1111122,1111122,1111122' 
TCOON,ioos:station:TCOON:146:1,2013-12-13T08:00:00Z,28.1324,-97.0345,0.0,3.2,20.0,4.0,'1111122,1111122,1111122' 
TCOON,ioos:station:TCOON:146:1,2013-12-13T08:30:00Z,28.1324,-97.0345,0.0,4.2,8.0,4.9,'1111122,1111122,1111122' 
TCOON,ioos:station:TCOON:146:1,2013-12-13T09:00:00Z,28.1324,-97.0345,0.0,3.8,32.0,4.5,'1111122,1111122,1111122' 
TCOON,ioos:station:TCOON:146:1,2013-12-13T09:30:00Z,28.1324,-97.0345,0.0,3.5,2.0,4.6,'1111122,1111122,1111122' 
TCOON,ioos:station:TCOON:146:1,2013-12-13T10:00:00Z,28.1324,-97.0345,0.0,4.3,11.0,4.8,'1111122,1111122,1111122' 
TCOON,ioos:station:TCOON:146:1,2013-12-13T10:30:00Z,28.1324,-97.0345,0.0,4.2,10.0,5.3,'1111122,1111122,1111122' 
TCOON,ioos:station:TCOON:146:1,2013-12-13T11:00:00Z,28.1324,-97.0345,0.0,4.7,343.0,6.2,'1111122,1111122,1111122' 
TCOON,ioos:station:TCOON:146:1,2013-12-13T11:30:00Z,28.1324,-97.0345,0.0,5.0,358.0,5.9,'1111122,1111122,1111122' 
TCOON,ioos:station:TCOON:146:1,2013-12-13T12:00:00Z,28.1324,-97.0345,0.0,5.5,2.0,6.3,'1111122,1111122,1111122' 
TCOON,ioos:station:TCOON:146:1,2013-12-13T12:30:00Z,28.1324,-97.0345,0.0,4.7,3.0,5.4,'1111122,1111122,1111122' 
TCOON,ioos:station:TCOON:146:1,2013-12-13T13:00:00Z,28.1324,-97.0345,0.0,4.6,1.0,5.5,'1111122,1111122,1111122' 
TCOON,ioos:station:TCOON:146:1,2013-12-13T13:30:00Z,28.1324,-97.0345,0.0,3.8,2.0,4.7,'1111122,1111122,1111122' 
TCOON,ioos:station:TCOON:146:1,2013-12-13T14:00:00Z,28.1324,-97.0345,0.0,3.4,350.0,4.0,'1111122,1111122,1111122' 
TCOON,ioos:station:TCOON:146:1,2013-12-13T14:30:00Z,28.1324,-97.0345,0.0,2.4,336.0,2.9,'1111122,1111122,1111122' 
TCOON,ioos:station:TCOON:146:1,2013-12-13T15:00:00Z,28.1324,-97.0345,0.0,3.9,47.0,4.7,'1111122,1111122,1111122' 
TCOON,ioos:station:TCOON:146:1,2013-12-13T15:30:00Z,28.1324,-97.0345,0.0,2.6,49.0,3.4,'1111122,1111122,1111122' 
TCOON,ioos:station:TCOON:146:1,2013-12-13T17:00:00Z,28.1324,-97.0345,0.0,2.8,19.0,3.5,'1111122,1111122,1111122' 
TCOON,ioos:station:TCOON:146:1,2013-12-13T18:00:00Z,28.1324,-97.0345,0.0,1.2,208.0,1.5,'1111122,1111122,1111122' 
TCOON,ioos:station:TCOON:146:1,2013-12-13T19:00:00Z,28.1324,-97.0345,0.0,3.1,132.0,3.5,'1111122,1111122,1111122' 
TCOON,ioos:station:TCOON:146:1,2013-12-13T20:00:00Z,28.1324,-97.0345,0.0,0.2,212.0,1.1,'1111122,1111122,1111122' 
TCOON,ioos:station:TCOON:146:1,2013-12-13T21:00:00Z,28.1324,-97.0345,0.0,0.5,5.0,1.0,'1111122,1111122,1111122' 
TCOON,ioos:station:TCOON:146:1,2013-12-13T22:00:00Z,28.1324,-97.0345,0.0,1.8,68.0,2.3,'1111122,1111122,1111122' 
TCOON,ioos:station:TCOON:146:1,2013-12-13T23:00:00Z,28.1324,-97.0345,0.0,3.2,105.0,4.3,'1111122,1111122,1111122' 
TCOON,ioos:station:TCOON:146:1,2013-12-14T00:00:00Z,28.1324,-97.0345,0.0,3.1,111.0,3.6,'1111122,1111122,1111122' 
TCOON,ioos:station:TCOON:146:1,2013-12-14T01:00:00Z,28.1324,-97.0345,0.0,2.6,163.0,3.1,'1111122,1111122,1111122' 
TCOON,ioos:station:TCOON:146:1,2013-12-14T02:00:00Z,28.1324,-97.0345,0.0,3.9,295.0,4.9,'1111122,1111122,1111122' 
TCOON,ioos:station:TCOON:146:1,2013-12-14T03:00:00Z,28.1324,-97.0345,0.0,4.5,333.0,5.2,'1111122,1111122,1111122' 
TCOON,ioos:station:TCOON:146:1,2013-12-14T04:00:00Z,28.1324,-97.0345,0.0,3.1,334.0,4.3,'1111122,1111122,1111122' 
TCOON,ioos:station:TCOON:146:1,2013-12-14T05:00:00Z,28.1324,-97.0345,0.0,3.6,346.0,4.2,'1111122,1111122,1111122' 
TCOON,ioos:station:TCOON:146:1,2013-12-14T06:30:00Z,28.1324,-97.0345,0.0,1.8,22.0,2.4,'1111122,1111122,1111122' 
TCOON,ioos:station:TCOON:146:1,2013-12-14T07:00:00Z,28.1324,-97.0345,0.0,0.7,117.0,1.2,'1111122,1111122,1111122' 
TCOON,ioos:station:TCOON:146:1,2013-12-14T08:00:00Z,28.1324,-97.0345,0.0,2.4,358.0,3.0,'1111122,1111122,1111122' 
TCOON,ioos:station:TCOON:146:1,2013-12-14T09:00:00Z,28.1324,-97.0345,0.0,2.3,329.0,2.7,'1111122,1111122,1111122' 
TCOON,ioos:station:TCOON:146:1,2013-12-14T10:00:00Z,28.1324,-97.0345,0.0,2.1,330.0,2.5,'1111122,1111122,1111122' 
TCOON,ioos:station:TCOON:146:1,2013-12-14T11:00:00Z,28.1324,-97.0345,0.0,1.9,7.0,2.3,'1111122,1111122,1111122' 
TCOON,ioos:station:TCOON:146:1,2013-12-14T12:00:00Z,28.1324,-97.0345,0.0,2.9,325.0,3.3,'1111122,1111122,1111122' 
TCOON,ioos:station:TCOON:146:1,2013-12-14T13:00:00Z,28.1324,-97.0345,0.0,3.3,330.0,4.0,'1111122,1111122,1111122' 
TCOON,ioos:station:TCOON:146:1,2013-12-14T14:00:00Z,28.1324,-97.0345,0.0,2.8,247.0,3.3,'1111122,1111122,1111122' 
TCOON,ioos:station:TCOON:146:1,2013-12-14T14:30:00Z,28.1324,-97.0345,0.0,3.6,251.0,4.3,'1111122,1111122,1111122' 
TCOON,ioos:station:TCOON:146:1,2013-12-14T15:00:00Z,28.1324,-97.0345,0.0,2.7,253.0,3.5,'1111122,1111122,1111122' 
TCOON,ioos:station:TCOON:146:1,2013-12-14T16:00:00Z,28.1324,-97.0345,0.0,3.2,252.0,3.8,'1111122,1111122,1111122' 
TCOON,ioos:station:TCOON:146:1,2013-12-14T17:00:00Z,28.1324,-97.0345,0.0,4.7,307.0,6.3,'1111122,1111122,1111122' 
TCOON,ioos:station:TCOON:146:1,2013-12-14T17:30:00Z,28.1324,-97.0345,0.0,5.0,300.0,5.8,'1111122,1111122,1111122' 
TCOON,ioos:station:TCOON:146:1,2013-12-14T18:00:00Z,28.1324,-97.0345,0.0,6.8,315.0,8.8,'1111122,1111122,1111122' 
TCOON,ioos:station:TCOON:146:1,2013-12-14T18:30:00Z,28.1324,-97.0345,0.0,7.2,326.0,8.3,'1111122,1111122,1111122' 
TCOON,ioos:station:TCOON:146:1,2013-12-14T19:00:00Z,28.1324,-97.0345,0.0,7.4,331.0,9.8,'1111122,1111122,1111122' 
TCOON,ioos:station:TCOON:146:1,2013-12-14T20:00:00Z,28.1324,-97.0345,0.0,9.7,338.0,11.5,'1111122,1111122,1111122' 
TCOON,ioos:station:TCOON:146:1,2013-12-14T21:00:00Z,28.1324,-97.0345,0.0,10.7,330.0,12.6,'1111122,1111122,1111122' 
TCOON,ioos:station:TCOON:146:1,2013-12-14T22:00:00Z,28.1324,-97.0345,0.0,11.0,331.0,13.1,'1111122,1111122,1111122' 
TCOON,ioos:station:TCOON:146:1,2013-12-14T23:00:00Z,28.1324,-97.0345,0.0,10.1,348.0,12.4,'1111122,1111122,1111122' 
TCOON,ioos:station:TCOON:146:1,2013-12-15T00:00:00Z,28.1324,-97.0345,0.0,8.1,356.0,10.3,'1111122,1111122,1111122' 
TCOON,ioos:station:TCOON:146:1,2013-12-15T01:00:00Z,28.1324,-97.0345,0.0,6.3,351.0,8.4,'1111122,1111122,1111122' 
TCOON,ioos:station:TCOON:146:1,2013-12-15T02:00:00Z,28.1324,-97.0345,0.0,4.7,354.0,5.8,'1111122,1111122,1111122' 
TCOON,ioos:station:TCOON:146:1,2013-12-15T02:30:00Z,28.1324,-97.0345,0.0,6.0,348.0,7.9,'1111122,1111122,1111122' 
TCOON,ioos:station:TCOON:146:1,2013-12-15T03:00:00Z,28.1324,-97.0345,0.0,7.1,348.0,8.5,'1111122,1111122,1111122' 
TCOON,ioos:station:TCOON:146:1,2013-12-15T04:00:00Z,28.1324,-97.0345,0.0,7.2,351.0,9.3,'1111122,1111122,1111122' 
TCOON,ioos:station:TCOON:146:1,2013-12-15T04:30:00Z,28.1324,-97.0345,0.0,6.1,353.0,8.1,'1111122,1111122,1111122' 
TCOON,ioos:station:TCOON:146:1,2013-12-15T05:00:00Z,28.1324,-97.0345,0.0,5.4,347.0,6.9,'1111122,1111122,1111122' 
TCOON,ioos:station:TCOON:146:1,2013-12-15T05:30:00Z,28.1324,-97.0345,0.0,5.4,344.0,6.4,'1111122,1111122,1111122' 
TCOON,ioos:station:TCOON:146:1,2013-12-15T06:00:00Z,28.1324,-97.0345,0.0,4.7,349.0,5.7,'1111122,1111122,1111122' 
TCOON,ioos:station:TCOON:146:1,2013-12-15T06:30:00Z,28.1324,-97.0345,0.0,5.7,342.0,6.6,'1111122,1111122,1111122' 
TCOON,ioos:station:TCOON:146:1,2013-12-15T07:00:00Z,28.1324,-97.0345,0.0,6.9,343.0,8.3,'1111122,1111122,1111122' 
TCOON,ioos:station:TCOON:146:1,2013-12-15T08:00:00Z,28.1324,-97.0345,0.0,6.4,339.0,7.9,'1111122,1111122,1111122' 
TCOON,ioos:station:TCOON:146:1,2013-12-15T08:30:00Z,28.1324,-97.0345,0.0,5.5,344.0,6.8,'1111122,1111122,1111122' 
TCOON,ioos:station:TCOON:146:1,2013-12-15T09:00:00Z,28.1324,-97.0345,0.0,5.4,346.0,6.2,'1111122,1111122,1111122' 
TCOON,ioos:station:TCOON:146:1,2013-12-15T09:30:00Z,28.1324,-97.0345,0.0,5.3,344.0,6.2,'1111122,1111122,1111122' 
TCOON,ioos:station:TCOON:146:1,2013-12-15T10:00:00Z,28.1324,-97.0345,0.0,5.9,340.0,6.6,'1111122,1111122,1111122' 
TCOON,ioos:station:TCOON:146:1,2013-12-15T10:30:00Z,28.1324,-97.0345,0.0,6.5,341.0,7.9,'1111122,1111122,1111122' 
TCOON,ioos:station:TCOON:146:1,2013-12-15T11:00:00Z,28.1324,-97.0345,0.0,6.9,341.0,8.5,'1111122,1111122,1111122' 
TCOON,ioos:station:TCOON:146:1,2013-12-15T11:30:00Z,28.1324,-97.0345,0.0,7.1,346.0,8.9,'1111122,1111122,1111122' 
TCOON,ioos:station:TCOON:146:1,2013-12-15T12:00:00Z,28.1324,-97.0345,0.0,6.1,346.0,7.5,'1111122,1111122,1111122' 
TCOON,ioos:station:TCOON:146:1,2013-12-15T12:30:00Z,28.1324,-97.0345,0.0,5.8,347.0,7.4,'1111122,1111122,1111122' 
TCOON,ioos:station:TCOON:146:1,2013-12-15T13:00:00Z,28.1324,-97.0345,0.0,6.3,350.0,7.4,'1111122,1111122,1111122' 
TCOON,ioos:station:TCOON:146:1,2013-12-15T13:30:00Z,28.1324,-97.0345,0.0,6.4,351.0,8.0,'1111122,1111122,1111122' 
TCOON,ioos:station:TCOON:146:1,2013-12-15T14:00:00Z,28.1324,-97.0345,0.0,5.2,353.0,6.0,'1111122,1111122,1111122' 
TCOON,ioos:station:TCOON:146:1,2013-12-15T14:30:00Z,28.1324,-97.0345,0.0,4.7,352.0,5.7,'1111122,1111122,1111122' 
TCOON,ioos:station:TCOON:146:1,2013-12-15T15:00:00Z,28.1324,-97.0345,0.0,3.6,351.0,4.5,'1111122,1111122,1111122' 
TCOON,ioos:station:TCOON:146:1,2013-12-15T16:00:00Z,28.1324,-97.0345,0.0,3.5,10.0,4.5,'1111122,1111122,1111122' 
TCOON,ioos:station:TCOON:146:1,2013-12-15T16:30:00Z,28.1324,-97.0345,0.0,3.4,342.0,4.3,'1111122,1111122,1111122' 
TCOON,ioos:station:TCOON:146:1,2013-12-15T17:00:00Z,28.1324,-97.0345,0.0,2.6,4.0,3.8,'1111122,1111122,1111122' 
TCOON,ioos:station:TCOON:146:1,2013-12-15T17:30:00Z,28.1324,-97.0345,0.0,1.8,10.0,2.2,'1111122,1111122,1111122' 
TCOON,ioos:station:TCOON:146:1,2013-12-15T18:00:00Z,28.1324,-97.0345,0.0,1.0,337.0,1.6,'1111122,1111122,1111122' 
TCOON,ioos:station:TCOON:146:1,2013-12-15T18:30:00Z,28.1324,-97.0345,0.0,1.6,220.0,3.1,'1111122,1111122,1111122' 
TCOON,ioos:station:TCOON:146:1,2013-12-15T19:00:00Z,28.1324,-97.0345,0.0,2.7,221.0,4.1,'1111122,1111122,1111122' 
TCOON,ioos:station:TCOON:146:1,2013-12-15T19:30:00Z,28.1324,-97.0345,0.0,3.3,219.0,4.1,'1111122,1111122,1111122' 
TCOON,ioos:station:TCOON:146:1,2013-12-15T20:00:00Z,28.1324,-97.0345,0.0,2.8,217.0,3.3,'1111122,1111122,1111122' 
TCOON,ioos:station:TCOON:146:1,2013-12-15T20:30:00Z,28.1324,-97.0345,0.0,3.5,204.0,4.2,'1111122,1111122,1111122' 
TCOON,ioos:station:TCOON:146:1,2013-12-15T21:00:00Z,28.1324,-97.0345,0.0,1.7,167.0,2.5,'1111122,1111122,1111122' 
TCOON,ioos:station:TCOON:146:1,2013-12-15T22:30:00Z,28.1324,-97.0345,0.0,2.7,135.0,3.6,'1111122,1111122,1111122' 
TCOON,ioos:station:TCOON:146:1,2013-12-15T23:00:00Z,28.1324,-97.0345,0.0,3.0,139.0,3.3,'1111122,1111122,1111122' 
TCOON,ioos:station:TCOON:146:1,2013-12-16T00:30:00Z,28.1324,-97.0345,0.0,2.7,161.0,3.5,'1111122,1111122,1111122' 
TCOON,ioos:station:TCOON:146:1,2013-12-16T01:00:00Z,28.1324,-97.0345,0.0,2.4,145.0,2.7,'1111122,1111122,1111122' 
TCOON,ioos:station:TCOON:146:1,2013-12-16T01:30:00Z,28.1324,-97.0345,0.0,2.4,139.0,2.6,'1111122,1111122,1111122' 
TCOON,ioos:station:TCOON:146:1,2013-12-16T02:00:00Z,28.1324,-97.0345,0.0,2.1,171.0,3.0,'1111122,1111122,1111122' 
TCOON,ioos:station:TCOON:146:1,2013-12-16T02:30:00Z,28.1324,-97.0345,0.0,1.3,188.0,1.7,'1111122,1111122,1111122' 
TCOON,ioos:station:TCOON:146:1,2013-12-16T03:00:00Z,28.1324,-97.0345,0.0,0.9,168.0,1.3,'1111122,1111122,1111122' 
TCOON,ioos:station:TCOON:146:1,2013-12-16T03:30:00Z,28.1324,-97.0345,0.0,1.7,178.0,2.6,'1111122,1111122,1111122' 
TCOON,ioos:station:TCOON:146:1,2013-12-16T04:00:00Z,28.1324,-97.0345,0.0,1.3,179.0,1.8,'1111122,1111122,1111122' 
TCOON,ioos:station:TCOON:146:1,2013-12-16T04:30:00Z,28.1324,-97.0345,0.0,0.3,146.0,1.0,'1111122,1111122,1111122' 
TCOON,ioos:station:TCOON:146:1,2013-12-16T05:00:00Z,28.1324,-97.0345,0.0,1.2,357.0,1.4,'1111122,1111122,1111122' 
TCOON,ioos:station:TCOON:146:1,2013-12-16T05:30:00Z,28.1324,-97.0345,0.0,0.6,360.0,1.2,'1111122,1111122,1111122' 
TCOON,ioos:station:TCOON:146:1,2013-12-16T06:00:00Z,28.1324,-97.0345,0.0,0.1,354.0,0.4,'1111122,1111122,1111122' 
TCOON,ioos:station:TCOON:146:1,2013-12-16T06:30:00Z,28.1324,-97.0345,0.0,1.0,216.0,1.4,'1111122,1111122,1111122' 
TCOON,ioos:station:TCOON:146:1,2013-12-16T07:00:00Z,28.1324,-97.0345,0.0,0.9,228.0,1.3,'1111122,1111122,1111122' 
TCOON,ioos:station:TCOON:146:1,2013-12-16T07:30:00Z,28.1324,-97.0345,0.0,1.3,214.0,1.6,'1111122,1111122,1111122' 
TCOON,ioos:station:TCOON:146:1,2013-12-16T08:00:00Z,28.1324,-97.0345,0.0,1.6,215.0,2.1,'1111122,1111122,1111122' 
TCOON,ioos:station:TCOON:146:1,2013-12-16T08:30:00Z,28.1324,-97.0345,0.0,1.4,209.0,2.0,'1111122,1111122,1111122' 
TCOON,ioos:station:TCOON:146:1,2013-12-16T09:00:00Z,28.1324,-97.0345,0.0,1.8,229.0,2.1,'1111122,1111122,1111122' 
TCOON,ioos:station:TCOON:146:1,2013-12-16T09:30:00Z,28.1324,-97.0345,0.0,1.3,236.0,1.5,'1111122,1111122,1111122' 
TCOON,ioos:station:TCOON:146:1,2013-12-16T10:00:00Z,28.1324,-97.0345,0.0,0.4,12.0,0.9,'1111122,1111122,1111122' 
TCOON,ioos:station:TCOON:146:1,2013-12-16T10:30:00Z,28.1324,-97.0345,0.0,1.6,13.0,1.7,'1111122,1111122,1111122' 
TCOON,ioos:station:TCOON:146:1,2013-12-16T11:00:00Z,28.1324,-97.0345,0.0,1.9,352.0,2.3,'1111122,1111122,1111122' 
TCOON,ioos:station:TCOON:146:1,2013-12-16T11:30:00Z,28.1324,-97.0345,0.0,1.5,341.0,1.8,'1111122,1111122,1111122' 
TCOON,ioos:station:TCOON:146:1,2013-12-16T12:00:00Z,28.1324,-97.0345,0.0,2.2,346.0,2.7,'1111122,1111122,1111122' 
TCOON,ioos:station:TCOON:146:1,2013-12-16T12:30:00Z,28.1324,-97.0345,0.0,1.6,351.0,1.9,'1111122,1111122,1111122' 
TCOON,ioos:station:TCOON:146:1,2013-12-16T13:00:00Z,28.1324,-97.0345,0.0,1.6,334.0,2.2,'1111122,1111122,1111122' 
TCOON,ioos:station:TCOON:146:1,2013-12-16T13:30:00Z,28.1324,-97.0345,0.0,2.2,316.0,2.7,'1111122,1111122,1111122' 
TCOON,ioos:station:TCOON:146:1,2013-12-16T14:00:00Z,28.1324,-97.0345,0.0,1.8,286.0,2.1,'1111122,1111122,1111122' 
TCOON,ioos:station:TCOON:146:1,2013-12-16T14:30:00Z,28.1324,-97.0345,0.0,1.9,305.0,2.4,'1111122,1111122,1111122' 
TCOON,ioos:station:TCOON:146:1,2013-12-16T15:00:00Z,28.1324,-97.0345,0.0,1.8,322.0,2.3,'1111122,1111122,1111122' 
TCOON,ioos:station:TCOON:146:1,2013-12-16T15:30:00Z,28.1324,-97.0345,0.0,1.0,286.0,1.2,'1111122,1111122,1111122' 
TCOON,ioos:station:TCOON:146:1,2013-12-16T16:00:00Z,28.1324,-97.0345,0.0,1.0,252.0,1.3,'1111122,1111122,1111122' 
TCOON,ioos:station:TCOON:146:1,2013-12-16T16:30:00Z,28.1324,-97.0345,0.0,0.7,249.0,0.9,'1111122,1111122,1111122' 
TCOON,ioos:station:TCOON:146:1,2013-12-16T17:00:00Z,28.1324,-97.0345,0.0,0.8,251.0,1.2,'1111122,1111122,1111122' 
TCOON,ioos:station:TCOON:146:1,2013-12-16T17:30:00Z,28.1324,-97.0345,0.0,1.0,290.0,1.2,'1111122,1111122,1111122' 
TCOON,ioos:station:TCOON:146:1,2013-12-16T18:00:00Z,28.1324,-97.0345,0.0,0.6,49.0,1.2,'1111122,1111122,1111122' 
TCOON,ioos:station:TCOON:146:1,2013-12-16T18:30:00Z,28.1324,-97.0345,0.0,1.5,86.0,1.9,'1111122,1111122,1111122' 
TCOON,ioos:station:TCOON:146:1,2013-12-16T19:00:00Z,28.1324,-97.0345,0.0,1.6,89.0,1.8,'1111122,1111122,1111122' 
TCOON,ioos:station:TCOON:146:1,2013-12-16T19:30:00Z,28.1324,-97.0345,0.0,1.9,115.0,2.2,'1111122,1111122,1111122' 
TCOON,ioos:station:TCOON:146:1,2013-12-16T20:00:00Z,28.1324,-97.0345,0.0,2.3,108.0,2.6,'1111122,1111122,1111122' 
TCOON,ioos:station:TCOON:146:1,2013-12-16T20:30:00Z,28.1324,-97.0345,0.0,3.4,127.0,3.9,'1111122,1111122,1111122' 
TCOON,ioos:station:TCOON:146:1,2013-12-16T21:00:00Z,28.1324,-97.0345,0.0,3.3,131.0,3.6,'1111122,1111122,1111122' 
TCOON,ioos:station:TCOON:146:1,2013-12-16T21:30:00Z,28.1324,-97.0345,0.0,3.8,140.0,4.4,'1111122,1111122,1111122' 
TCOON,ioos:station:TCOON:146:1,2013-12-16T22:00:00Z,28.1324,-97.0345,0.0,3.9,139.0,4.3,'1111122,1111122,1111122' 
TCOON,ioos:station:TCOON:146:1,2013-12-16T22:30:00Z,28.1324,-97.0345,0.0,3.0,134.0,3.5,'1111122,1111122,1111122' 
TCOON,ioos:station:TCOON:146:1,2013-12-16T23:00:00Z,28.1324,-97.0345,0.0,3.6,130.0,3.9,'1111122,1111122,1111122' 
TCOON,ioos:station:TCOON:146:1,2013-12-16T23:30:00Z,28.1324,-97.0345,0.0,3.3,123.0,3.6,'1111122,1111122,1111122' 
TCOON,ioos:station:TCOON:146:1,2013-12-17T00:00:00Z,28.1324,-97.0345,0.0,2.8,114.0,3.3,'1111122,1111122,1111122' 
TCOON,ioos:station:TCOON:146:1,2013-12-17T00:30:00Z,28.1324,-97.0345,0.0,3.6,102.0,4.2,'1111122,1111122,1111122' 
TCOON,ioos:station:TCOON:146:1,2013-12-17T01:00:00Z,28.1324,-97.0345,0.0,3.7,106.0,4.3,'1111122,1111122,1111122' 
TCOON,ioos:station:TCOON:146:1,2013-12-17T01:30:00Z,28.1324,-97.0345,0.0,3.0,116.0,3.5,'1111122,1111122,1111122' 
TCOON,ioos:station:TCOON:146:1,2013-12-17T02:00:00Z,28.1324,-97.0345,0.0,3.2,116.0,3.7,'1111122,1111122,1111122' 
TCOON,ioos:station:TCOON:146:1,2013-12-17T02:30:00Z,28.1324,-97.0345,0.0,3.1,115.0,3.6,'1111122,1111122,1111122' 
TCOON,ioos:station:TCOON:146:1,2013-12-17T03:00:00Z,28.1324,-97.0345,0.0,2.5,117.0,2.7,'1111122,1111122,1111122' 
TCOON,ioos:station:TCOON:146:1,2013-12-17T03:30:00Z,28.1324,-97.0345,0.0,3.0,105.0,3.5,'1111122,1111122,1111122' 
TCOON,ioos:station:TCOON:146:1,2013-12-17T04:00:00Z,28.1324,-97.0345,0.0,3.0,102.0,3.3,'1111122,1111122,1111122' 
TCOON,ioos:station:TCOON:146:1,2013-12-17T04:30:00Z,28.1324,-97.0345,0.0,2.7,93.0,3.0,'1111122,1111122,1111122' 
TCOON,ioos:station:TCOON:146:1,2013-12-17T05:00:00Z,28.1324,-97.0345,0.0,3.0,92.0,3.5,'1111122,1111122,1111122' 
TCOON,ioos:station:TCOON:146:1,2013-12-17T05:30:00Z,28.1324,-97.0345,0.0,1.9,109.0,2.3,'1111122,1111122,1111122' 
TCOON,ioos:station:TCOON:146:1,2013-12-17T06:00:00Z,28.1324,-97.0345,0.0,1.8,116.0,2.5,'1111122,1111122,1111122' 
TCOON,ioos:station:TCOON:146:1,2013-12-17T06:30:00Z,28.1324,-97.0345,0.0,2.0,127.0,2.2,'1111122,1111122,1111122' 
TCOON,ioos:station:TCOON:146:1,2013-12-17T07:00:00Z,28.1324,-97.0345,0.0,1.9,132.0,2.2,'1111122,1111122,1111122' 
TCOON,ioos:station:TCOON:146:1,2013-12-17T07:30:00Z,28.1324,-97.0345,0.0,1.1,125.0,1.4,'1111122,1111122,1111122' 
TCOON,ioos:station:TCOON:146:1,2013-12-17T08:00:00Z,28.1324,-97.0345,0.0,0.7,115.0,0.9,'1111122,1111122,1111122' 
TCOON,ioos:station:TCOON:146:1,2013-12-17T08:30:00Z,28.1324,-97.0345,0.0,0.0,116.0,0.3,'1114422,1111122,1111122' 
TCOON,ioos:station:TCOON:146:1,2013-12-17T09:00:00Z,28.1324,-97.0345,0.0,0.5,116.0,0.6,'1111122,1111122,1111122' 
TCOON,ioos:station:TCOON:146:1,2013-12-17T09:30:00Z,28.1324,-97.0345,0.0,1.9,334.0,2.4,'1111122,1111122,1111122' 
TCOON,ioos:station:TCOON:146:1,2013-12-17T10:00:00Z,28.1324,-97.0345,0.0,1.3,354.0,1.5,'1111122,1111122,1111122' 
TCOON,ioos:station:TCOON:146:1,2013-12-17T10:30:00Z,28.1324,-97.0345,0.0,1.2,10.0,1.4,'1111122,1111122,1111122' 
TCOON,ioos:station:TCOON:146:1,2013-12-17T11:00:00Z,28.1324,-97.0345,0.0,1.1,17.0,1.3,'1111122,1111122,1111122' 
TCOON,ioos:station:TCOON:146:1,2013-12-17T11:30:00Z,28.1324,-97.0345,0.0,1.9,1.0,2.1,'1111122,1111122,1111122' 
TCOON,ioos:station:TCOON:146:1,2013-12-17T12:00:00Z,28.1324,-97.0345,0.0,2.0,360.0,2.3,'1111122,1111122,1111122' 
TCOON,ioos:station:TCOON:146:1,2013-12-17T12:30:00Z,28.1324,-97.0345,0.0,2.8,360.0,3.2,'1111122,1111122,1111122' 
TCOON,ioos:station:TCOON:146:1,2013-12-17T13:00:00Z,28.1324,-97.0345,0.0,2.6,354.0,2.9,'1111122,1111122,1111122' 
TCOON,ioos:station:TCOON:146:1,2013-12-17T13:30:00Z,28.1324,-97.0345,0.0,2.6,1.0,2.9,'1111122,1111122,1111122' 
TCOON,ioos:station:TCOON:146:1,2013-12-17T14:00:00Z,28.1324,-97.0345,0.0,2.2,3.0,2.8,'1111122,1111122,1111122' 
TCOON,ioos:station:TCOON:146:1,2013-12-17T14:30:00Z,28.1324,-97.0345,0.0,2.4,10.0,3.1,'1111122,1111122,1111122' 
TCOON,ioos:station:TCOON:146:1,2013-12-17T15:00:00Z,28.1324,-97.0345,0.0,2.9,10.0,3.6,'1111122,1111122,1111122' 
TCOON,ioos:station:TCOON:146:1,2013-12-17T15:30:00Z,28.1324,-97.0345,0.0,3.2,11.0,3.8,'1111122,1111122,1111122' 
TCOON,ioos:station:TCOON:146:1,2013-12-17T16:00:00Z,28.1324,-97.0345,0.0,3.1,7.0,3.4,'1111122,1111122,1111122' 
TCOON,ioos:station:TCOON:146:1,2013-12-17T16:30:00Z,28.1324,-97.0345,0.0,3.0,6.0,3.4,'1111122,1111122,1111122' 
TCOON,ioos:station:TCOON:146:1,2013-12-17T17:00:00Z,28.1324,-97.0345,0.0,2.5,1.0,2.8,'1111122,1111122,1111122' 
TCOON,ioos:station:TCOON:146:1,2013-12-17T17:30:00Z,28.1324,-97.0345,0.0,0.6,135.0,1.1,'1111122,1111122,1111122' 
TCOON,ioos:station:TCOON:146:1,2013-12-17T18:00:00Z,28.1324,-97.0345,0.0,1.3,121.0,1.8,'1111122,1111122,1111122' 
TCOON,ioos:station:TCOON:146:1,2013-12-17T18:30:00Z,28.1324,-97.0345,0.0,1.5,108.0,2.0,'1111122,1111122,1111122' 
TCOON,ioos:station:TCOON:146:1,2013-12-17T19:00:00Z,28.1324,-97.0345,0.0,2.2,117.0,2.6,'1111122,1111122,1111122' 
TCOON,ioos:station:TCOON:146:1,2013-12-17T19:30:00Z,28.1324,-97.0345,0.0,2.2,121.0,2.7,'1111122,1111122,1111122' 
TCOON,ioos:station:TCOON:146:1,2013-12-17T20:00:00Z,28.1324,-97.0345,0.0,1.6,117.0,2.0,'1111122,1111122,1111122' 
TCOON,ioos:station:TCOON:146:1,2013-12-17T20:30:00Z,28.1324,-97.0345,0.0,1.7,113.0,2.1,'1111122,1111122,1111122' 
TCOON,ioos:station:TCOON:146:1,2013-12-17T21:00:00Z,28.1324,-97.0345,0.0,2.6,124.0,2.9,'1111122,1111122,1111122' 
TCOON,ioos:station:TCOON:146:1,2013-12-17T22:00:00Z,28.1324,-97.0345,0.0,3.8,119.0,4.4,'1111122,1111122,1111122' 
TCOON,ioos:station:TCOON:146:1,2013-12-17T22:30:00Z,28.1324,-97.0345,0.0,2.7,96.0,3.3,'1111122,1111122,1111122' 
TCOON,ioos:station:TCOON:146:1,2013-12-18T00:30:00Z,28.1324,-97.0345,0.0,3.0,116.0,3.6,'1111122,1111122,1111122' 
TCOON,ioos:station:TCOON:146:1,2013-12-18T01:00:00Z,28.1324,-97.0345,0.0,3.6,99.0,4.0,'1111122,1111122,1111122' 
TCOON,ioos:station:TCOON:146:1,2013-12-18T01:30:00Z,28.1324,-97.0345,0.0,3.2,89.0,4.4,'1111122,1111122,1111122' 
TCOON,ioos:station:TCOON:146:1,2013-12-18T02:00:00Z,28.1324,-97.0345,0.0,4.0,100.0,4.5,'1111122,1111122,1111122' 
TCOON,ioos:station:TCOON:146:1,2013-12-18T02:30:00Z,28.1324,-97.0345,0.0,3.7,98.0,4.2,'1111122,1111122,1111122' 
TCOON,ioos:station:TCOON:146:1,2013-12-18T03:00:00Z,28.1324,-97.0345,0.0,3.7,108.0,4.2,'1111122,1111122,1111122' 
TCOON,ioos:station:TCOON:146:1,2013-12-18T03:30:00Z,28.1324,-97.0345,0.0,3.0,93.0,4.0,'1111122,1111122,1111122' 
TCOON,ioos:station:TCOON:146:1,2013-12-18T04:00:00Z,28.1324,-97.0345,0.0,2.0,68.0,2.4,'1111122,1111122,1111122' 
TCOON,ioos:station:TCOON:146:1,2013-12-18T04:30:00Z,28.1324,-97.0345,0.0,1.1,100.0,1.9,'1111122,1111122,1111122' 
TCOON,ioos:station:TCOON:146:1,2013-12-18T05:00:00Z,28.1324,-97.0345,0.0,1.9,95.0,2.2,'1111122,1111122,1111122' 
TCOON,ioos:station:TCOON:146:1,2013-12-18T06:00:00Z,28.1324,-97.0345,0.0,1.1,78.0,1.8,'1111122,1111122,1111122' 
TCOON,ioos:station:TCOON:146:1,2013-12-18T06:30:00Z,28.1324,-97.0345,0.0,1.2,101.0,1.5,'1111122,1111122,1111122' 
TCOON,ioos:station:TCOON:146:1,2013-12-18T07:00:00Z,28.1324,-97.0345,0.0,1.5,111.0,2.2,'1111122,1111122,1111122' 
TCOON,ioos:station:TCOON:146:1,2013-12-18T07:30:00Z,28.1324,-97.0345,0.0,1.2,108.0,1.5,'1111122,1111122,1111122' 
TCOON,ioos:station:TCOON:146:1,2013-12-18T08:00:00Z,28.1324,-97.0345,0.0,1.2,107.0,1.4,'1111122,1111122,1111122' 